Flag for Australia Weather past 2 weeks in Brisbane, Queensland, Australia

Now
72 °F

Sunny.


Feels Like: 77 °F
Forecast: 42 / 74 °F
Wind: 12 mph from Northeast

Location: Brisbane Airport M. O

Current Time: Jul 30, 2014 at 4:05:06 PM

Latest Report: Jul 30, 2014 at 3:00 PM


Visibility: 10 mi

Pressure: 30.07 "Hg

Humidity: 36%

Dew point: 43 °F

Location of BrisbaneLocation

Historic Weather in Brisbane — Graph

°F

Brisbane temperature yesterday

Maximum temperature yesterday: 77 °F (at 2:00 PM)
Minimum temperature yesterday: 41 °F (at 6:00 AM)
Average temperature yesterday: 59 °F

Past Weeks' High & Low Weather Summary

 TemperatureHumidityPressure
High77 °F (Jul 29, 2:00 PM)100% (Jul 16, 2:00 AM)30.33 "Hg (Jul 16, 2:00 AM)
Low41 °F (Jul 29, 6:00 AM)15% (Jul 18, 12:30 PM)29.86 "Hg (Jul 18, 2:00 PM)
Average59 °F69%30.13 "Hg
* Reported Jul 15 3:00 PM — Jul 30 3:00 PM, Brisbane, Weather by CustomWeather, © 2014

Note: Actual official high and low records may vary slightly from our data, if they occured in-between our weather recording intervals... More about our weather records

Advertising

Brisbane weather history for previous 24 hours

 ConditionsComfort  
Time TempWeatherWind HumidityBarometerVisibility
3:00 PM
Jul 30
72 °FSunny.12 mph36%30.07 "Hg10 mi
2:30 PM72 °FSunny.9 mph31%30.07 "Hg10 mi
2:00 PM72 °FSunny.10 mph31%30.07 "Hg10 mi
1:30 PM73 °FSunny.9 mph31%30.09 "Hg10 mi
1:00 PM73 °FSunny.8 mph31%30.09 "Hg10 mi
12:30 PM70 °FSunny.7 mph33%30.12 "Hg10 mi
12:00 PM70 °FSunny.5 mph31%30.12 "Hg10 mi
11:30 AM70 °FSunny.7 mph35%30.15 "Hg10 mi
11:00 AM70 °FSunny.6 mph33%30.15 "Hg10 mi
10:30 AM66 °FSunny.6 mph37%30.18 "Hg10 mi
10:00 AM66 °FSunny.6 mph37%30.18 "Hg10 mi
9:30 AM61 °FSunny.5 mph45%30.21 "Hg10 mi
9:00 AM59 °FSunny.6 mph51%30.21 "Hg10 mi
8:30 AM55 °FSunny.8 mph63%30.21 "Hg10 mi
8:00 AM52 °FSunny.6 mph67%30.21 "Hg10 mi
7:30 AM48 °FSunny.7 mph76%30.18 "Hg10 mi
7:00 AM46 °FSunny.8 mph76%30.18 "Hg10 mi
6:30 AM45 °FSunny.8 mph81%30.18 "Hg10 mi
6:00 AM45 °FSunny.5 mph81%30.18 "Hg10 mi
5:30 AM43 °FSunny.1 mph81%30.15 "Hg10 mi
5:00 AM46 °FClear.1 mph76%30.15 "Hg10 mi
4:30 AM45 °FClear.No wind81%30.15 "Hg10 mi
4:00 AM48 °FClear.8 mph76%30.15 "Hg10 mi
3:30 AM48 °FClear.No wind82%30.15 "Hg10 mi
3:00 AM48 °FClear.5 mph87%30.15 "Hg10 mi
2:30 AM48 °FClear.6 mph87%30.15 "Hg10 mi
2:00 AM50 °FClear.1 mph76%30.15 "Hg10 mi
1:30 AM52 °FClear.2 mph72%30.15 "Hg10 mi
1:00 AM50 °FClear.7 mph82%30.15 "Hg10 mi
12:30 AM50 °FClear.No wind94%30.15 "Hg10 mi
12:00 AM52 °FClear.No wind94%30.15 "Hg10 mi
11:30 PM
Jul 29
54 °FClear.2 mph88%30.15 "Hg10 mi
11:00 PM54 °FClear.5 mph88%30.15 "Hg10 mi
10:30 PM57 °FCool.5 mph82%30.15 "HgN/A
10:00 PM55 °FCool.5 mph88%30.15 "HgN/A
9:30 PM57 °FCool.3 mph88%30.15 "HgN/A
9:00 PM59 °FClear.6 mph88%30.15 "Hg6 mi
8:30 PM59 °FClear.7 mph88%30.12 "Hg10 mi
8:00 PM59 °FClear.8 mph88%30.12 "Hg10 mi
7:30 PM59 °FClear.8 mph82%30.12 "Hg10 mi
7:00 PM61 °FClear.5 mph77%30.12 "Hg10 mi
6:30 PM61 °FClear.8 mph72%30.12 "Hg10 mi
6:00 PM57 °FClear.6 mph63%30.09 "Hg10 mi
5:00 PM66 °FClear.7 mph46%30.09 "Hg10 mi
4:30 PM68 °FClear.12 mph43%30.09 "Hg10 mi
4:00 PM72 °FSunny.7 mph36%30.09 "Hg10 mi
Weather by CustomWeather, © 2014

See weather overviewHow to use our weather pages